Year,Month,Day,Hour,Minute,Value (Times are PST for temperature in C)
2014,11,10,00,00,3.80
2014,11,10,00,01,3.80
2014,11,10,00,02,3.80
2014,11,10,00,03,3.80
2014,11,10,00,04,3.80
2014,11,10,00,05,3.80
2014,11,10,00,06,3.80
2014,11,10,00,07,3.80
2014,11,10,00,08,3.80
2014,11,10,00,09,3.90
2014,11,10,00,10,3.90
2014,11,10,00,11,4.00
2014,11,10,00,12,4.00
2014,11,10,00,13,4.00
2014,11,10,00,14,4.00
2014,11,10,00,15,4.00
2014,11,10,00,16,4.00
2014,11,10,00,17,4.00
2014,11,10,00,18,4.00
2014,11,10,00,19,4.00
2014,11,10,00,20,4.10
2014,11,10,00,21,4.10
2014,11,10,00,22,4.10
2014,11,10,00,23,4.10
2014,11,10,00,24,4.10
2014,11,10,00,25,4.00
2014,11,10,00,26,4.00
2014,11,10,00,27,3.90
2014,11,10,00,28,3.90
2014,11,10,00,29,3.80
2014,11,10,00,30,3.80
2014,11,10,00,31,3.70
2014,11,10,00,32,3.70
2014,11,10,00,33,3.70
2014,11,10,00,34,3.60
2014,11,10,00,35,3.50
2014,11,10,00,36,3.50
2014,11,10,00,37,3.40
2014,11,10,00,38,3.40
2014,11,10,00,39,3.30
2014,11,10,00,40,3.30
2014,11,10,00,41,3.30
2014,11,10,00,42,3.30
2014,11,10,00,43,3.20
2014,11,10,00,44,3.20
2014,11,10,00,45,3.20
2014,11,10,00,46,3.20
2014,11,10,00,47,3.20
2014,11,10,00,48,3.20
2014,11,10,00,49,3.10
2014,11,10,00,50,3.10
2014,11,10,00,51,3.10
2014,11,10,00,52,3.10
2014,11,10,00,53,3.10
2014,11,10,00,54,3.10
2014,11,10,00,55,3.00
2014,11,10,00,56,3.00
2014,11,10,00,57,3.10
2014,11,10,00,58,3.10
2014,11,10,00,59,3.10
2014,11,10,01,00,3.10
2014,11,10,01,01,3.10
2014,11,10,01,02,3.10
2014,11,10,01,03,3.10
2014,11,10,01,04,3.10
2014,11,10,01,05,3.10
2014,11,10,01,06,3.10
2014,11,10,01,07,3.10
2014,11,10,01,08,3.10
2014,11,10,01,09,3.10
2014,11,10,01,10,3.20
2014,11,10,01,11,3.10
2014,11,10,01,12,3.10
2014,11,10,01,13,3.10
2014,11,10,01,14,3.10
2014,11,10,01,15,3.10
2014,11,10,01,16,3.10
2014,11,10,01,17,3.10
2014,11,10,01,18,3.00
2014,11,10,01,19,3.00
2014,11,10,01,20,3.00
2014,11,10,01,21,2.90
2014,11,10,01,22,2.90
2014,11,10,01,23,2.90
2014,11,10,01,24,2.90
2014,11,10,01,25,2.90
2014,11,10,01,26,3.00
2014,11,10,01,27,3.00
2014,11,10,01,28,3.10
2014,11,10,01,29,3.10
2014,11,10,01,30,3.10
2014,11,10,01,31,3.20
2014,11,10,01,32,3.20
2014,11,10,01,33,3.20
2014,11,10,01,34,3.20
2014,11,10,01,35,3.30
2014,11,10,01,36,3.30
2014,11,10,01,37,3.30
2014,11,10,01,38,3.30
2014,11,10,01,39,3.30
2014,11,10,01,40,3.30
2014,11,10,01,41,3.30
2014,11,10,01,42,3.30
2014,11,10,01,43,3.30
2014,11,10,01,44,3.30
2014,11,10,01,45,3.30
2014,11,10,01,46,3.30
2014,11,10,01,47,3.30
2014,11,10,01,48,3.30
2014,11,10,01,49,3.30
2014,11,10,01,50,3.30
2014,11,10,01,51,3.30
2014,11,10,01,52,3.30
2014,11,10,01,53,3.30
2014,11,10,01,54,3.20
2014,11,10,01,55,3.20
2014,11,10,01,56,3.20
2014,11,10,01,57,3.10
2014,11,10,01,58,3.10
2014,11,10,01,59,3.10
2014,11,10,02,00,3.00
2014,11,10,02,01,3.00
2014,11,10,02,02,2.90
2014,11,10,02,03,2.90
2014,11,10,02,04,2.90
2014,11,10,02,05,2.80
2014,11,10,02,06,2.80
2014,11,10,02,07,2.80
2014,11,10,02,08,2.70
2014,11,10,02,09,2.70
2014,11,10,02,10,2.70
2014,11,10,02,11,2.70
2014,11,10,02,12,2.70
2014,11,10,02,13,2.70
2014,11,10,02,14,2.70
2014,11,10,02,15,2.70
2014,11,10,02,16,2.60
2014,11,10,02,17,2.60
2014,11,10,02,18,2.60
2014,11,10,02,19,2.50
2014,11,10,02,20,2.50
2014,11,10,02,21,2.50
2014,11,10,02,22,2.50
2014,11,10,02,23,2.50
2014,11,10,02,24,2.50
2014,11,10,02,25,2.50
2014,11,10,02,26,2.50
2014,11,10,02,27,2.50
2014,11,10,02,28,2.50
2014,11,10,02,29,2.50
2014,11,10,02,30,2.40
2014,11,10,02,31,2.40
2014,11,10,02,32,2.40
2014,11,10,02,33,2.40
2014,11,10,02,34,2.40
2014,11,10,02,35,2.40
2014,11,10,02,36,2.40
2014,11,10,02,37,2.40
2014,11,10,02,38,2.40
2014,11,10,02,39,2.40
2014,11,10,02,40,2.40
2014,11,10,02,41,2.40
2014,11,10,02,42,2.40
2014,11,10,02,43,2.40
2014,11,10,02,44,2.40
2014,11,10,02,45,2.40
2014,11,10,02,46,2.40
2014,11,10,02,47,2.40
2014,11,10,02,48,2.50
2014,11,10,02,49,2.40
2014,11,10,02,50,2.40
2014,11,10,02,51,2.40
2014,11,10,02,52,2.40
2014,11,10,02,53,2.40
2014,11,10,02,54,2.40
2014,11,10,02,55,2.40
2014,11,10,02,56,2.40
2014,11,10,02,57,2.40
2014,11,10,02,58,2.40
2014,11,10,02,59,2.50
2014,11,10,03,00,2.60
2014,11,10,03,01,2.80
2014,11,10,03,02,2.90
2014,11,10,03,03,3.00
2014,11,10,03,04,3.00
2014,11,10,03,05,3.10
2014,11,10,03,06,3.10
2014,11,10,03,07,3.20
2014,11,10,03,08,3.30
2014,11,10,03,09,3.40
2014,11,10,03,10,3.40
2014,11,10,03,11,3.50
2014,11,10,03,12,3.60
2014,11,10,03,13,3.60
2014,11,10,03,14,3.70
2014,11,10,03,15,3.70
2014,11,10,03,16,3.70
2014,11,10,03,17,3.80
2014,11,10,03,18,3.80
2014,11,10,03,19,3.80
2014,11,10,03,20,3.80
2014,11,10,03,21,3.90
2014,11,10,03,22,3.90
2014,11,10,03,23,3.90
2014,11,10,03,24,3.90
2014,11,10,03,25,4.00
2014,11,10,03,26,4.00
2014,11,10,03,27,4.00
2014,11,10,03,28,4.00
2014,11,10,03,29,4.00
2014,11,10,03,30,4.00
2014,11,10,03,31,4.00
2014,11,10,03,32,4.10
2014,11,10,03,33,4.20
2014,11,10,03,34,4.30
2014,11,10,03,35,4.40
2014,11,10,03,36,4.50
2014,11,10,03,37,4.50
2014,11,10,03,38,4.60
2014,11,10,03,39,4.70
2014,11,10,03,40,4.70
2014,11,10,03,41,4.70
2014,11,10,03,42,4.70
2014,11,10,03,43,4.80
2014,11,10,03,44,4.80
2014,11,10,03,45,4.80
2014,11,10,03,46,4.80
2014,11,10,03,47,4.80
2014,11,10,03,48,4.80
2014,11,10,03,49,4.90
2014,11,10,03,50,5.00
2014,11,10,03,51,5.00
2014,11,10,03,52,5.10
2014,11,10,03,53,5.10
2014,11,10,03,54,5.20
2014,11,10,03,55,5.20
2014,11,10,03,56,5.20
2014,11,10,03,57,5.20
2014,11,10,03,58,5.20
2014,11,10,03,59,5.20
2014,11,10,04,00,5.20
2014,11,10,04,01,5.20
2014,11,10,04,02,5.20
2014,11,10,04,03,5.30
2014,11,10,04,04,5.30
2014,11,10,04,05,5.30
2014,11,10,04,06,5.30
2014,11,10,04,07,5.40
2014,11,10,04,08,5.40
2014,11,10,04,09,5.40
2014,11,10,04,10,5.50
2014,11,10,04,11,5.60
2014,11,10,04,12,5.60
2014,11,10,04,13,5.70
2014,11,10,04,14,5.80
2014,11,10,04,15,5.80
2014,11,10,04,16,5.80
2014,11,10,04,17,5.90
2014,11,10,04,18,5.90
2014,11,10,04,19,6.00
2014,11,10,04,20,6.00
2014,11,10,04,21,6.10
2014,11,10,04,22,6.20
2014,11,10,04,23,6.20
2014,11,10,04,24,6.30
2014,11,10,04,25,6.30
2014,11,10,04,26,6.40
2014,11,10,04,27,6.40
2014,11,10,04,28,6.40
2014,11,10,04,29,6.40
2014,11,10,04,30,6.50
2014,11,10,04,31,6.50
2014,11,10,04,32,6.50
2014,11,10,04,33,6.50
2014,11,10,04,34,6.60
2014,11,10,04,35,6.60
2014,11,10,04,36,6.60
2014,11,10,04,37,6.60
2014,11,10,04,38,6.60
2014,11,10,04,39,6.60
2014,11,10,04,40,6.70
2014,11,10,04,41,6.70
2014,11,10,04,42,6.70
2014,11,10,04,43,6.70
2014,11,10,04,44,6.70
2014,11,10,04,45,6.70
2014,11,10,04,46,6.70
2014,11,10,04,47,6.70
2014,11,10,04,48,6.70
2014,11,10,04,49,6.70
2014,11,10,04,50,6.70
2014,11,10,04,51,6.70
2014,11,10,04,52,6.80
2014,11,10,04,53,6.80
2014,11,10,04,54,6.80
2014,11,10,04,55,6.80
2014,11,10,04,56,6.80
2014,11,10,04,57,6.80
2014,11,10,04,58,6.80
2014,11,10,04,59,6.80
2014,11,10,05,00,6.80
2014,11,10,05,01,6.80
2014,11,10,05,02,6.80
2014,11,10,05,03,6.70
2014,11,10,05,04,6.70
2014,11,10,05,05,6.70
2014,11,10,05,06,6.70
2014,11,10,05,07,6.70
2014,11,10,05,08,6.70
2014,11,10,05,09,6.70
2014,11,10,05,10,6.70
2014,11,10,05,11,6.70
2014,11,10,05,12,6.70
2014,11,10,05,13,6.70
2014,11,10,05,14,6.60
2014,11,10,05,15,6.60
2014,11,10,05,16,6.60
2014,11,10,05,17,6.60
2014,11,10,05,18,6.60
2014,11,10,05,19,6.50
2014,11,10,05,20,6.50
2014,11,10,05,21,6.40
2014,11,10,05,22,6.40
2014,11,10,05,23,6.40
2014,11,10,05,24,6.30
2014,11,10,05,25,6.30
2014,11,10,05,26,6.20
2014,11,10,05,27,6.20
2014,11,10,05,28,6.10
2014,11,10,05,29,6.00
2014,11,10,05,30,6.00
2014,11,10,05,31,5.90
2014,11,10,05,32,5.80
2014,11,10,05,33,5.80
2014,11,10,05,34,5.70
2014,11,10,05,35,5.60
2014,11,10,05,36,5.50
2014,11,10,05,37,5.50
2014,11,10,05,38,5.40
2014,11,10,05,39,5.30
2014,11,10,05,40,5.30
2014,11,10,05,41,5.20
2014,11,10,05,42,5.20
2014,11,10,05,43,5.10
2014,11,10,05,44,5.10
2014,11,10,05,45,5.00
2014,11,10,05,46,4.90
2014,11,10,05,47,4.90
2014,11,10,05,48,4.80
2014,11,10,05,49,4.80
2014,11,10,05,50,4.80
2014,11,10,05,51,4.70
2014,11,10,05,52,4.70
2014,11,10,05,53,4.70
2014,11,10,05,54,4.70
2014,11,10,05,55,4.60
2014,11,10,05,56,4.60
2014,11,10,05,57,4.60
2014,11,10,05,58,4.60
2014,11,10,05,59,4.60
2014,11,10,06,00,4.60
2014,11,10,06,01,4.50
2014,11,10,06,02,4.60
2014,11,10,06,03,4.60
2014,11,10,06,04,4.50
2014,11,10,06,05,4.50
2014,11,10,06,06,4.50
2014,11,10,06,07,4.50
2014,11,10,06,08,4.40
2014,11,10,06,09,4.40
2014,11,10,06,10,4.40
2014,11,10,06,11,4.30
2014,11,10,06,12,4.30
2014,11,10,06,13,4.30
2014,11,10,06,14,4.30
2014,11,10,06,15,4.20
2014,11,10,06,16,4.30
2014,11,10,06,17,4.30
2014,11,10,06,18,4.20
2014,11,10,06,19,4.20
2014,11,10,06,20,4.20
2014,11,10,06,21,4.20
2014,11,10,06,22,4.20
2014,11,10,06,23,4.20
2014,11,10,06,24,4.20
2014,11,10,06,25,4.10
2014,11,10,06,26,4.10
2014,11,10,06,27,4.10
2014,11,10,06,28,4.10
2014,11,10,06,29,4.10
2014,11,10,06,30,4.10
2014,11,10,06,31,4.10
2014,11,10,06,32,4.10
2014,11,10,06,33,4.10
2014,11,10,06,34,4.10
2014,11,10,06,35,4.10
2014,11,10,06,36,4.10
2014,11,10,06,37,4.10
2014,11,10,06,38,4.00
2014,11,10,06,39,4.00
2014,11,10,06,40,4.00
2014,11,10,06,41,3.90
2014,11,10,06,42,3.90
2014,11,10,06,43,3.90
2014,11,10,06,44,3.90
2014,11,10,06,45,3.90
2014,11,10,06,46,3.90
2014,11,10,06,47,4.00
2014,11,10,06,48,4.30
2014,11,10,06,49,4.50
2014,11,10,06,50,4.80
2014,11,10,06,51,4.90
2014,11,10,06,52,5.00
2014,11,10,06,53,5.10
2014,11,10,06,54,5.10
2014,11,10,06,55,5.00
2014,11,10,06,56,5.00
2014,11,10,06,57,4.90
2014,11,10,06,58,4.90
2014,11,10,06,59,4.80
2014,11,10,07,00,4.70
2014,11,10,07,01,4.70
2014,11,10,07,02,4.60
2014,11,10,07,03,4.50
2014,11,10,07,04,4.40
2014,11,10,07,05,4.30
2014,11,10,07,06,4.30
2014,11,10,07,07,4.20
2014,11,10,07,08,4.20
2014,11,10,07,09,4.10
2014,11,10,07,10,4.00
2014,11,10,07,11,4.00
2014,11,10,07,12,3.90
2014,11,10,07,13,3.80
2014,11,10,07,14,3.70
2014,11,10,07,15,3.60
2014,11,10,07,16,3.50
2014,11,10,07,17,3.50
2014,11,10,07,18,3.40
2014,11,10,07,19,3.30
2014,11,10,07,20,3.20
2014,11,10,07,21,3.20
2014,11,10,07,22,3.20
2014,11,10,07,23,3.10
2014,11,10,07,24,3.10
2014,11,10,07,25,3.10
2014,11,10,07,26,3.10
2014,11,10,07,27,3.10
2014,11,10,07,28,3.20
2014,11,10,07,29,3.20
2014,11,10,07,30,3.20
2014,11,10,07,31,3.20
2014,11,10,07,32,3.20
2014,11,10,07,33,3.20
2014,11,10,07,34,3.10
2014,11,10,07,35,3.10
2014,11,10,07,36,3.10
2014,11,10,07,37,3.10
2014,11,10,07,38,3.00
2014,11,10,07,39,3.00
2014,11,10,07,40,3.00
2014,11,10,07,41,3.00
2014,11,10,07,42,3.00
2014,11,10,07,43,3.00
2014,11,10,07,44,3.00
2014,11,10,07,45,3.00
2014,11,10,07,46,3.00
2014,11,10,07,47,3.00
2014,11,10,07,48,3.00
2014,11,10,07,49,3.00
2014,11,10,07,50,3.00
2014,11,10,07,51,3.10
2014,11,10,07,52,3.10
2014,11,10,07,53,3.10
2014,11,10,07,54,3.20
2014,11,10,07,55,3.20
2014,11,10,07,56,3.30
2014,11,10,07,57,3.30
2014,11,10,07,58,3.40
2014,11,10,07,59,3.50
2014,11,10,08,00,3.60
2014,11,10,08,01,3.70
2014,11,10,08,02,3.80
2014,11,10,08,03,3.80
2014,11,10,08,04,3.90
2014,11,10,08,05,3.90
2014,11,10,08,06,4.00
2014,11,10,08,07,4.10
2014,11,10,08,08,4.10
2014,11,10,08,09,4.20
2014,11,10,08,10,4.20
2014,11,10,08,11,4.20
2014,11,10,08,12,4.30
2014,11,10,08,13,4.30
2014,11,10,08,14,4.40
2014,11,10,08,15,4.40
2014,11,10,08,16,4.50
2014,11,10,08,17,4.60
2014,11,10,08,18,4.60
2014,11,10,08,19,4.70
2014,11,10,08,20,4.80
2014,11,10,08,21,4.90
2014,11,10,08,22,4.90
2014,11,10,08,23,5.00
2014,11,10,08,24,5.10
2014,11,10,08,25,5.20
2014,11,10,08,26,5.30
2014,11,10,08,27,5.30
2014,11,10,08,28,5.40
2014,11,10,08,29,5.50
2014,11,10,08,30,5.70
2014,11,10,08,31,5.80
2014,11,10,08,32,5.80
2014,11,10,08,33,5.90
2014,11,10,08,34,6.00
2014,11,10,08,35,6.10
2014,11,10,08,36,6.20
2014,11,10,08,37,6.30
2014,11,10,08,38,6.40
2014,11,10,08,39,6.50
2014,11,10,08,40,6.60
2014,11,10,08,41,6.70
2014,11,10,08,42,6.70
2014,11,10,08,43,6.80
2014,11,10,08,44,6.80
2014,11,10,08,45,6.90
2014,11,10,08,46,6.90
2014,11,10,08,47,7.00
2014,11,10,08,48,7.00
2014,11,10,08,49,7.10
2014,11,10,08,50,7.10
2014,11,10,08,51,7.20
2014,11,10,08,52,7.20
2014,11,10,08,53,7.30
2014,11,10,08,54,7.30
2014,11,10,08,55,7.30
2014,11,10,08,56,7.30
2014,11,10,08,57,7.40
2014,11,10,08,58,7.40
2014,11,10,08,59,7.40
2014,11,10,09,00,7.50
2014,11,10,09,01,7.50
2014,11,10,09,02,7.60
2014,11,10,09,03,7.60
2014,11,10,09,04,7.60
2014,11,10,09,05,7.70
2014,11,10,09,06,7.70
2014,11,10,09,07,7.70
2014,11,10,09,08,7.80
2014,11,10,09,09,7.80
2014,11,10,09,10,7.80
2014,11,10,09,11,7.80
2014,11,10,09,12,7.90
2014,11,10,09,13,7.90
2014,11,10,09,14,7.90
2014,11,10,09,15,7.90
2014,11,10,09,16,8.00
2014,11,10,09,17,8.00
2014,11,10,09,18,8.00
2014,11,10,09,19,8.10
2014,11,10,09,20,8.10
2014,11,10,09,21,8.20
2014,11,10,09,22,8.20
2014,11,10,09,23,8.20
2014,11,10,09,24,8.30
2014,11,10,09,25,8.30
2014,11,10,09,26,8.30
2014,11,10,09,27,8.40
2014,11,10,09,28,8.40
2014,11,10,09,29,8.40
2014,11,10,09,30,8.40
2014,11,10,09,31,8.50
2014,11,10,09,32,8.50
2014,11,10,09,33,8.50
2014,11,10,09,34,8.60
2014,11,10,09,35,8.60
2014,11,10,09,36,8.70
2014,11,10,09,37,8.70
2014,11,10,09,38,8.80
2014,11,10,09,39,8.80
2014,11,10,09,40,8.90
2014,11,10,09,41,8.90
2014,11,10,09,42,8.90
2014,11,10,09,43,8.90
2014,11,10,09,44,9.00
2014,11,10,09,45,9.00
2014,11,10,09,46,9.00
2014,11,10,09,47,9.10
2014,11,10,09,48,9.10
2014,11,10,09,49,9.10
2014,11,10,09,50,9.10
2014,11,10,09,51,9.10
2014,11,10,09,52,9.10
2014,11,10,09,53,9.10
2014,11,10,09,54,9.10
2014,11,10,09,55,9.20
2014,11,10,09,56,9.20
2014,11,10,09,57,9.20
2014,11,10,09,58,9.20
2014,11,10,09,59,9.20
2014,11,10,10,00,9.20
2014,11,10,10,01,9.30
2014,11,10,10,02,9.30
2014,11,10,10,03,9.30
2014,11,10,10,04,9.30
2014,11,10,10,05,9.30
2014,11,10,10,06,9.30
2014,11,10,10,07,9.30
2014,11,10,10,08,9.40
2014,11,10,10,09,9.40
2014,11,10,10,10,9.40
2014,11,10,10,11,9.40
2014,11,10,10,12,9.40
2014,11,10,10,13,9.40
2014,11,10,10,14,9.40
2014,11,10,10,15,9.40
2014,11,10,10,16,9.40
2014,11,10,10,17,9.40
2014,11,10,10,18,9.40
2014,11,10,10,19,9.40
2014,11,10,10,20,9.40
2014,11,10,10,21,9.40
2014,11,10,10,22,9.40
2014,11,10,10,23,9.40
2014,11,10,10,24,9.30
2014,11,10,10,25,9.30
2014,11,10,10,26,9.30
2014,11,10,10,27,9.20
2014,11,10,10,28,9.20
2014,11,10,10,29,9.20
2014,11,10,10,30,9.20
2014,11,10,10,31,9.20
2014,11,10,10,32,9.20
2014,11,10,10,33,9.20
2014,11,10,10,34,9.20
2014,11,10,10,35,9.20
2014,11,10,10,36,9.20
2014,11,10,10,37,9.20
2014,11,10,10,38,9.30
2014,11,10,10,39,9.30
2014,11,10,10,40,9.30
2014,11,10,10,41,9.30
2014,11,10,10,42,9.30
2014,11,10,10,43,9.30
2014,11,10,10,44,9.30
2014,11,10,10,45,9.30
2014,11,10,10,46,9.30
2014,11,10,10,47,9.30
2014,11,10,10,48,9.40
2014,11,10,10,49,9.40
2014,11,10,10,50,9.40
2014,11,10,10,51,9.40
2014,11,10,10,52,9.40
2014,11,10,10,53,9.40
2014,11,10,10,54,9.50
2014,11,10,10,55,9.50
2014,11,10,10,56,9.60
2014,11,10,10,57,9.60
2014,11,10,10,58,9.60
2014,11,10,10,59,9.60
2014,11,10,11,00,9.60
2014,11,10,11,01,9.60
2014,11,10,11,02,9.60
2014,11,10,11,03,9.70
2014,11,10,11,04,9.70
2014,11,10,11,05,9.70
2014,11,10,11,06,9.70
2014,11,10,11,07,9.70
2014,11,10,11,08,9.80
2014,11,10,11,09,9.80
2014,11,10,11,10,9.80
2014,11,10,11,11,9.90
2014,11,10,11,12,9.90
2014,11,10,11,13,9.90
2014,11,10,11,14,9.90
2014,11,10,11,15,9.90
2014,11,10,11,16,9.90
2014,11,10,11,17,9.90
2014,11,10,11,18,9.90
2014,11,10,11,19,9.90
2014,11,10,11,20,10.00
2014,11,10,11,21,10.00
2014,11,10,11,22,10.00
2014,11,10,11,23,10.10
2014,11,10,11,24,10.10
2014,11,10,11,25,10.10
2014,11,10,11,26,10.00
2014,11,10,11,27,10.00
2014,11,10,11,28,9.90
2014,11,10,11,29,9.90
2014,11,10,11,30,9.80
2014,11,10,11,31,9.80
2014,11,10,11,32,9.80
2014,11,10,11,33,9.80
2014,11,10,11,34,9.90
2014,11,10,11,35,9.90
2014,11,10,11,36,9.90
2014,11,10,11,37,9.90
2014,11,10,11,38,9.90
2014,11,10,11,39,9.90
2014,11,10,11,40,9.90
2014,11,10,11,41,9.90
2014,11,10,11,42,9.90
2014,11,10,11,43,9.90
2014,11,10,11,44,9.90
2014,11,10,11,45,9.90
2014,11,10,11,46,9.90
2014,11,10,11,47,10.00
2014,11,10,11,48,10.00
2014,11,10,11,49,10.00
2014,11,10,11,50,9.90
2014,11,10,11,51,9.90
2014,11,10,11,52,9.90
2014,11,10,11,53,9.90
2014,11,10,11,54,9.90
2014,11,10,11,55,9.90
2014,11,10,11,56,9.90
2014,11,10,11,57,9.90
2014,11,10,11,58,10.00
2014,11,10,11,59,10.00
2014,11,10,12,00,10.10
2014,11,10,12,01,10.10
2014,11,10,12,02,10.10
2014,11,10,12,03,10.10
2014,11,10,12,04,10.10
2014,11,10,12,05,10.20
2014,11,10,12,06,10.20
2014,11,10,12,07,10.20
2014,11,10,12,08,10.20
2014,11,10,12,09,10.20
2014,11,10,12,10,10.20
2014,11,10,12,11,10.20
2014,11,10,12,12,10.20
2014,11,10,12,13,10.20
2014,11,10,12,14,10.20
2014,11,10,12,15,10.30
2014,11,10,12,16,10.30
2014,11,10,12,17,10.30
2014,11,10,12,18,10.40
2014,11,10,12,19,10.40
2014,11,10,12,20,10.40
2014,11,10,12,21,10.40
2014,11,10,12,22,10.40
2014,11,10,12,23,10.40
2014,11,10,12,24,10.40
2014,11,10,12,25,10.40
2014,11,10,12,26,10.40
2014,11,10,12,27,10.40
2014,11,10,12,28,10.40
2014,11,10,12,29,10.30
2014,11,10,12,30,10.30
2014,11,10,12,31,10.30
2014,11,10,12,32,10.30
2014,11,10,12,33,10.30
2014,11,10,12,34,10.30
2014,11,10,12,35,10.30
2014,11,10,12,36,10.30
2014,11,10,12,37,10.40
2014,11,10,12,38,10.40
2014,11,10,12,39,10.40
2014,11,10,12,40,10.40
2014,11,10,12,41,10.40
2014,11,10,12,42,10.40
2014,11,10,12,43,10.40
2014,11,10,12,44,10.40
2014,11,10,12,45,10.40
2014,11,10,12,46,10.40
2014,11,10,12,47,10.40
2014,11,10,12,48,10.40
2014,11,10,12,49,10.40
2014,11,10,12,50,10.40
2014,11,10,12,51,10.40
2014,11,10,12,52,10.40
2014,11,10,12,53,10.40
2014,11,10,12,54,10.40
2014,11,10,12,55,10.40
2014,11,10,12,56,10.40
2014,11,10,12,57,10.40
2014,11,10,12,58,10.40
2014,11,10,12,59,10.40
2014,11,10,13,00,10.40
2014,11,10,13,01,10.50
2014,11,10,13,02,10.40
2014,11,10,13,03,10.40
2014,11,10,13,04,10.40
2014,11,10,13,05,10.30
2014,11,10,13,06,10.30
2014,11,10,13,07,10.30
2014,11,10,13,08,10.30
2014,11,10,13,09,10.30
2014,11,10,13,10,10.30
2014,11,10,13,11,10.30
2014,11,10,13,12,10.40
2014,11,10,13,13,10.40
2014,11,10,13,14,10.40
2014,11,10,13,15,10.50
2014,11,10,13,16,10.50
2014,11,10,13,17,10.40
2014,11,10,13,18,10.40
2014,11,10,13,19,10.40
2014,11,10,13,20,10.40
2014,11,10,13,21,10.40
2014,11,10,13,22,10.40
2014,11,10,13,23,10.30
2014,11,10,13,24,10.30
2014,11,10,13,25,10.30
2014,11,10,13,26,10.30
2014,11,10,13,27,10.30
2014,11,10,13,28,10.30
2014,11,10,13,29,10.30
2014,11,10,13,30,10.30
2014,11,10,13,31,10.30
2014,11,10,13,32,10.30
2014,11,10,13,33,10.30
2014,11,10,13,34,10.30
2014,11,10,13,35,10.40
2014,11,10,13,36,10.40
2014,11,10,13,37,10.40
2014,11,10,13,38,10.40
2014,11,10,13,39,10.30
2014,11,10,13,40,10.30
2014,11,10,13,41,10.30
2014,11,10,13,42,10.40
2014,11,10,13,43,10.40
2014,11,10,13,44,10.40
2014,11,10,13,45,10.40
2014,11,10,13,46,10.50
2014,11,10,13,47,10.40
2014,11,10,13,48,10.40
2014,11,10,13,49,10.40
2014,11,10,13,50,10.50
2014,11,10,13,51,10.50
2014,11,10,13,52,10.50
2014,11,10,13,53,10.50
2014,11,10,13,54,10.50
2014,11,10,13,55,10.60
2014,11,10,13,56,10.60
2014,11,10,13,57,10.60
2014,11,10,13,58,10.60
2014,11,10,13,59,10.60
2014,11,10,14,00,10.60
2014,11,10,14,01,10.60
2014,11,10,14,02,10.60
2014,11,10,14,03,10.60
2014,11,10,14,04,10.60
2014,11,10,14,05,10.60
2014,11,10,14,06,10.60
2014,11,10,14,07,10.60
2014,11,10,14,08,10.60
2014,11,10,14,09,10.60
2014,11,10,14,10,10.60
2014,11,10,14,11,10.60
2014,11,10,14,12,10.60
2014,11,10,14,13,10.60
2014,11,10,14,14,10.60
2014,11,10,14,15,10.60
2014,11,10,14,16,10.60
2014,11,10,14,17,10.60
2014,11,10,14,18,10.60
2014,11,10,14,19,10.60
2014,11,10,14,20,10.70
2014,11,10,14,21,10.70
2014,11,10,14,22,10.70
2014,11,10,14,23,10.70
2014,11,10,14,24,10.60
2014,11,10,14,25,10.70
2014,11,10,14,26,10.70
2014,11,10,14,27,10.70
2014,11,10,14,28,10.70
2014,11,10,14,29,10.70
2014,11,10,14,30,10.70
2014,11,10,14,31,10.70
2014,11,10,14,32,10.70
2014,11,10,14,33,10.80
2014,11,10,14,34,10.80
2014,11,10,14,35,10.80
2014,11,10,14,36,10.80
2014,11,10,14,37,10.80
2014,11,10,14,38,10.90
2014,11,10,14,39,10.90
2014,11,10,14,40,10.90
2014,11,10,14,41,10.80
2014,11,10,14,42,10.80
2014,11,10,14,43,10.80
2014,11,10,14,44,10.80
2014,11,10,14,45,10.80
2014,11,10,14,46,10.80
2014,11,10,14,47,10.80
2014,11,10,14,48,10.80
2014,11,10,14,49,10.80
2014,11,10,14,50,10.80
2014,11,10,14,51,10.80
2014,11,10,14,52,10.70
2014,11,10,14,53,10.70
2014,11,10,14,54,10.80
2014,11,10,14,55,10.80
2014,11,10,14,56,10.70
2014,11,10,14,57,10.70
2014,11,10,14,58,10.70
2014,11,10,14,59,10.70
2014,11,10,15,00,10.70
2014,11,10,15,01,10.70
2014,11,10,15,02,10.70
2014,11,10,15,03,10.70
2014,11,10,15,04,10.70
2014,11,10,15,05,10.60
2014,11,10,15,06,10.60
2014,11,10,15,07,10.60
2014,11,10,15,08,10.60
2014,11,10,15,09,10.60
2014,11,10,15,10,10.60
2014,11,10,15,11,10.60
2014,11,10,15,12,10.60
2014,11,10,15,13,10.60
2014,11,10,15,14,10.60
2014,11,10,15,15,10.60
2014,11,10,15,16,10.60
2014,11,10,15,17,10.60
2014,11,10,15,18,10.60
2014,11,10,15,19,10.60
2014,11,10,15,20,10.60
2014,11,10,15,21,10.60
2014,11,10,15,22,10.60
2014,11,10,15,23,10.60
2014,11,10,15,24,10.60
2014,11,10,15,25,10.70
2014,11,10,15,26,10.70
2014,11,10,15,27,10.60
2014,11,10,15,28,10.70
2014,11,10,15,29,10.60
2014,11,10,15,30,10.60
2014,11,10,15,31,10.60
2014,11,10,15,32,10.60
2014,11,10,15,33,10.70
2014,11,10,15,34,10.70
2014,11,10,15,35,10.70
2014,11,10,15,36,10.70
2014,11,10,15,37,10.70
2014,11,10,15,38,10.70
2014,11,10,15,39,10.70
2014,11,10,15,40,10.60
2014,11,10,15,41,10.60
2014,11,10,15,42,10.60
2014,11,10,15,43,10.60
2014,11,10,15,44,10.60
2014,11,10,15,45,10.60
2014,11,10,15,46,10.60
2014,11,10,15,47,10.60
2014,11,10,15,48,10.60
2014,11,10,15,49,10.60
2014,11,10,15,50,10.60
2014,11,10,15,51,10.60
2014,11,10,15,52,10.60
2014,11,10,15,53,10.60
2014,11,10,15,54,10.50
2014,11,10,15,55,10.50
2014,11,10,15,56,10.50
2014,11,10,15,57,10.40
2014,11,10,15,58,10.40
2014,11,10,15,59,10.40
2014,11,10,16,00,10.40
2014,11,10,16,01,10.40
2014,11,10,16,02,10.40
2014,11,10,16,03,10.40
2014,11,10,16,04,10.40
2014,11,10,16,05,10.40
2014,11,10,16,06,10.30
2014,11,10,16,07,10.30
2014,11,10,16,08,10.30
2014,11,10,16,09,10.30
2014,11,10,16,10,10.30
2014,11,10,16,11,10.30
2014,11,10,16,12,10.30
2014,11,10,16,13,10.20
2014,11,10,16,14,10.20
2014,11,10,16,15,10.20
2014,11,10,16,16,10.20
2014,11,10,16,17,10.10
2014,11,10,16,18,10.10
2014,11,10,16,19,10.10
2014,11,10,16,20,10.10
2014,11,10,16,21,10.10
2014,11,10,16,22,10.00
2014,11,10,16,23,10.00
2014,11,10,16,24,10.00
2014,11,10,16,25,9.90
2014,11,10,16,26,9.90
2014,11,10,16,27,9.90
2014,11,10,16,28,9.80
2014,11,10,16,29,9.80
2014,11,10,16,30,9.80
2014,11,10,16,31,9.70
2014,11,10,16,32,9.70
2014,11,10,16,33,9.70
2014,11,10,16,34,9.60
2014,11,10,16,35,9.60
2014,11,10,16,36,9.50
2014,11,10,16,37,9.50
2014,11,10,16,38,9.50
2014,11,10,16,39,9.40
2014,11,10,16,40,9.40
2014,11,10,16,41,9.30
2014,11,10,16,42,9.30
2014,11,10,16,43,9.30
2014,11,10,16,44,9.20
2014,11,10,16,45,9.20
2014,11,10,16,46,9.10
2014,11,10,16,47,9.00
2014,11,10,16,48,9.00
2014,11,10,16,49,8.90
2014,11,10,16,50,8.80
2014,11,10,16,51,8.70
2014,11,10,16,52,8.70
2014,11,10,16,53,8.60
2014,11,10,16,54,8.50
2014,11,10,16,55,8.40
2014,11,10,16,56,8.40
2014,11,10,16,57,8.30
2014,11,10,16,58,8.20
2014,11,10,16,59,8.20
2014,11,10,17,00,8.10
2014,11,10,17,01,8.00
2014,11,10,17,02,8.00
2014,11,10,17,03,7.90
2014,11,10,17,04,7.80
2014,11,10,17,05,7.80
2014,11,10,17,06,7.80
2014,11,10,17,07,7.70
2014,11,10,17,08,7.70
2014,11,10,17,09,7.60
2014,11,10,17,10,7.60
2014,11,10,17,11,7.50
2014,11,10,17,12,7.50
2014,11,10,17,13,7.40
2014,11,10,17,14,7.40
2014,11,10,17,15,7.40
2014,11,10,17,16,7.30
2014,11,10,17,17,7.30
2014,11,10,17,18,7.30
2014,11,10,17,19,7.20
2014,11,10,17,20,7.20
2014,11,10,17,21,7.20
2014,11,10,17,22,7.10
2014,11,10,17,23,7.10
2014,11,10,17,24,7.00
2014,11,10,17,25,7.00
2014,11,10,17,26,7.00
2014,11,10,17,27,6.90
2014,11,10,17,28,6.90
2014,11,10,17,29,6.90
2014,11,10,17,30,6.80
2014,11,10,17,31,6.80
2014,11,10,17,32,6.80
2014,11,10,17,33,6.70
2014,11,10,17,34,6.70
2014,11,10,17,35,6.70
2014,11,10,17,36,6.60
2014,11,10,17,37,6.60
2014,11,10,17,38,6.50
2014,11,10,17,39,6.40
2014,11,10,17,40,6.40
2014,11,10,17,41,6.30
2014,11,10,17,42,6.30
2014,11,10,17,43,6.20
2014,11,10,17,44,6.10
2014,11,10,17,45,6.10
2014,11,10,17,46,6.00
2014,11,10,17,47,5.90
2014,11,10,17,48,5.90
2014,11,10,17,49,5.80
2014,11,10,17,50,5.80
2014,11,10,17,51,5.70
2014,11,10,17,52,5.70
2014,11,10,17,53,5.60
2014,11,10,17,54,5.60